Location: Unspecified
(43.4680°N, 87.1740°E)
Time: 04:43:27
(UTC+00:00)

CENTAUR R/B - Pass Details

Date: 17 April 2021
Orbit: 742 x 1446 km, 63.4° (Epoch: 18 April)

Event Time Altitude Azimuth Distance (km) Brightness Sun altitude
Rises 14:08:35 0° 318° (NW) 4,251 7.3 -12.9°
Reaches altitude 10° 14:11:27 10° 312° (NW) 3,360 6.6 -13.3°
Maximum altitude 14:19:10 43° 245° (WSW) 1,904 4.3 -14.5°
Drops below altitude 10° 14:27:21 10° 179° (S) 3,551 5.1 -15.8°
Enters shadow 14:30:10 - 173° (S) 4,414 5.5 -16.2°
